Tracking 22779 objects as of 14-Apr-2021
HD Live streaming from Space Station
objects crossing your sky now

SSC

Track SSC now!
10-day predictions
SSC is classified as:


NORAD ID: 13874
Int'l Code: 1983-008H
Perigee: 382.6 km
Apogee: 1,723.3 km
Inclination: 63.3 °
Period: 106.1 minutes
Semi major axis: 7423 km
RCS: Unknown
Launch date: February 9, 1983
Source: United States (US)
Launch site: AIR FORCE WESTERN TEST RANGE (AFWTR)
aabbcc
Your satellite tracking list
Your tracking list is empty




NASA's NSSDC Master Catalog

Two Line Element Set (TLE):
1 13874U 83008H   21102.91538616  .00000993  00000-0  85854-4 0  9992
2 13874  63.2910 102.1043 0902969 100.6058 269.7857 13.57229340 92856
Source of the keplerian elements: McCants